Location: Julian California
(33.0790°N, 116.6010°W)
Time: 03:36:34
(UTC-07:00)

Daily predictions for brighter satellites

Satellite Brightness Start Highest point End
(mag) Time Altitude Azimuth Time Altitude Azimuth Time Altitude Azimuth
Cosmos 2322 Rocket 4.1 00:02:29 10° NNW 00:04:53 26° NNW 00:04:53 26° NNW
Cosmos 2360 Rocket 4.2 00:18:08 10° N 00:20:21 23° N 00:20:21 23° N
Cosmos 2333 Rocket 4.4 00:33:38 10° N 00:36:03 20° NNE 00:36:03 20° NNE
Cosmos 2219 Rocket 4.3 01:37:46 10° NNW 01:39:37 21° NNW 01:39:37 21° NNW
USA 215 4.1 01:56:35 10° NE 02:00:49 42° ENE 02:00:49 42° ENE
CZ-2D R/B 3.8 02:01:51 10° NNE 02:04:39 30° NNE 02:04:39 30° NNE
Cosmos 2297 Rocket 3.7 02:14:38 33° NNE 02:14:38 33° NNE 02:17:37 10° NNE
SL-16 R/B 3.4 02:14:06 47° NE 02:14:06 47° NE 02:19:00 10° N
ADEOS II 4.2 02:09:36 10° NE 02:12:06 20° ENE 02:12:06 20° ENE
SJ 16-02 3.9 02:30:09 19° NE 02:30:09 19° NE 02:31:31 10° NNE
Cosmos 2237 Rocket 3.6 02:25:39 10° NNW 02:28:39 32° N 02:28:39 32° N
USA 229 DEB 3.8 02:58:21 59° E 02:58:21 59° E 03:04:32 10° NE
USA 229 3.8 02:58:27 59° E 02:58:27 59° E 03:04:36 10° NE
Cosmos 2227 Rocket 3.5 03:02:41 30° NNW 03:02:41 30° NNW 03:06:20 10° N
Resurs 1-4 Rocket 3.6 03:01:55 10° N 03:04:46 27° NNW 03:04:46 27° NNW
ATLAS 3B CENTAUR R/B 3.4 03:07:04 57° SW 03:09:10 66° S 03:15:59 10° E
NOSS 3-1 (A) 3.9 03:09:54 45° E 03:09:54 45° E 03:14:56 10° NE
Cosmos 1544 Rocket 4.4 03:25:44 49° NNE 03:25:44 49° NNE 03:29:09 10° NNE
Cosmos 1937 Rocket 3.5 03:27:52 77° NE 03:27:52 77° NE 03:32:49 10° NNE
Cosmos 1898 Rocket 3.9 03:33:09 53° NW 03:33:09 53° NW 03:37:35 10° N
Cosmos 1470 4.3 03:38:31 30° N 03:38:31 30° N 03:40:40 10° N
ARIANE 5 R/B 2.4 03:34:16 10° NNE 03:39:30 90° ENE 03:39:42 84° SSW
SL-16 R/B 2.0 03:34:28 10° NNW 03:40:10 88° WSW 03:41:06 64° SSE
Meteor 1-24 Rocket 3.9 03:35:12 10° NNW 03:39:35 51° NW 03:39:35 51° NW
Atlas Centaur 2 4.0 03:40:12 24° SSE 03:41:17 25° SSE 03:47:35 10° E
Okean 1-7 Rocket 4.1 03:38:41 10° N 03:42:02 51° NNW 03:42:02 51° NNW
Cosmos 2292 Rocket 4.4 03:36:11 10° N 03:43:36 74° W 03:44:38 61° SSW
Cosmos 1680 Rocket 3.3 03:38:36 10° NNW 03:43:50 85° WSW 03:43:58 84° SW
IDEFIX/ARIANE 42P 2.8 03:39:36 10° NNE 03:44:45 63° E 03:45:55 49° SSE
USA 215 4.4 03:40:07 10° NNE 03:45:43 32° NW 03:48:09 25° WNW
OAO 3 Rocket 3.4 03:46:46 61° SE 03:46:46 61° SE 03:51:16 10° E
CZ-2D R/B 4.1 03:43:38 10° NNW 03:45:58 15° NW 03:45:58 15° NW
Cosmos 372 Rocket 4.3 03:48:08 47° SSE 03:49:18 59° ESE 03:54:26 10° NNE
ADEOS II 3.0 03:48:49 10° N 03:53:02 32° WNW 03:53:02 32° WNW
Cosmos 2263 Rocket 2.1 03:52:29 56° S 03:53:41 80° ESE 03:59:15 10° NNE
Meteor 2-10 4.0 03:54:32 55° S 03:55:47 88° E 04:01:21 10° N
SL-16 R/B 4.3 03:59:12 16° WNW 03:59:12 16° WNW 04:01:08 10° NW
SL-08 R/B 3.3 03:58:49 65° SW 03:59:19 71° WSW 04:04:16 10° NNW
Timation 1 Rocket 4.5 03:58:37 49° W 03:59:37 55° WNW 04:05:27 10° NNE
CZ-2C R/B 4.1 04:01:55 10° NE 04:05:47 26° E 04:09:39 10° SSE
SJ 16-02 3.7 04:07:09 12° NW 04:07:09 12° NW 04:08:00 10° NW
NOSS 2-3 (E) 4.0 04:07:42 45° WNW 04:07:49 45° NW 04:12:13 10° NNE
Cosmos 1607 3.9 04:04:07 10° NW 04:10:30 66° WSW 04:16:51 10° SSE
USA 267 4.3 04:07:28 10° ESE 04:13:38 46° NE 04:19:48 10° NNW
NOSS 3-1 (C) 4.3 04:14:24 25° WNW 04:15:49 28° NW 04:20:55 10° N
Cosmos 2098 Rocket 4.3 04:15:31 10° NNW 04:20:25 38° W 04:21:33 35° WSW
Cosmos 2298 Rocket 4.0 04:19:47 32° SSW 04:22:18 89° E 04:27:38 10° NNE
PSLV R/B 4.4 04:18:32 10° NNE 04:22:47 49° E 04:26:02 16° S
Cosmos 1626 Rocket 3.4 04:19:30 10° NNW 04:23:45 63° W 04:25:05 40° SSW
Landsat 5 3.8 04:20:07 10° SSE 04:23:52 58° ENE 04:27:45 10° N
BREEZE-M DEB (TANK) 3.6 04:22:50 41° WSW 04:24:14 72° NW 04:36:02 10° NE
ERS-2 3.0 04:21:56 10° SSE 04:25:26 50° ENE 04:28:58 10° N
CZ-2C R/B 2.8 04:22:46 10° N 04:26:33 58° WNW 04:27:07 51° WSW
ATLAS CENTAUR R/B 2.2 04:27:27 23° S 04:29:43 46° ESE 04:33:39 10° NE
Cosmos 1726 3.3 04:31:13 27° WNW 04:31:13 27° WNW 04:33:54 10° NNW
Meteor 2-21 Rocket 4.3 04:26:40 10° N 04:32:43 83° W 04:38:46 10° S
Cosmos 1953 3.1 04:33:37 32° W 04:33:44 32° W 04:37:22 10° NNW
CZ-2D R/B 4.5 04:30:54 10° NNW 04:34:17 26° WNW 04:34:26 26° WNW
Meteor 2-16 Rocket 4.5 04:29:41 10° N 04:35:52 87° E 04:42:01 10° S
S3M 4.4 04:29:38 10° S 04:35:54 66° E 04:42:14 10° NNE
Cosmos 1908 3.1 04:34:23 33° SSW 04:36:00 74° W 04:39:55 10° N
Cosmos 2228 3.3 04:33:45 14° S 04:37:24 68° E 04:41:45 10° NNE
SL-4 R/B 2.3 04:35:52 10° NW 04:39:11 52° NE 04:42:32 10° ESE
Cosmos 1758 Rocket 3.8 04:37:40 10° N 04:41:57 67° E 04:46:14 10° SSE
SeaSat 1 2.7 04:39:10 10° NNE 04:43:56 51° WNW 04:46:38 25° SW
SL-23 DEB 3.8 04:39:23 10° NW 04:44:10 58° SW 04:47:26 10° SSE
CZ-4C R/B 2.7 04:43:14 30° SSW 04:44:32 56° W 04:47:42 10° NNW
PAYLOAD A 4.0 04:39:28 10° NNE 04:44:49 90° E 04:49:42 11° SSW
Nadezhda 2 Rocket 4.5 04:39:01 10° NNW 04:45:06 60° W 04:51:05 10° S
CZ-4B R/B 3.8 04:42:37 10° SE 04:45:24 25° ENE 04:48:08 10° NNE
Cosmos 1943 3.5 04:41:01 10° NNW 04:46:37 72° ENE 04:52:12 10° SSE
MSX 4.2 04:46:21 10° N 04:51:47 45° WNW 04:55:43 18° SW
H-2A R/B 2.1 04:48:02 10° S 04:52:04 51° W 04:56:04 10° NNW
Meteor 1-21 Rocket 4.5 04:49:13 10° NNW 04:54:26 45° W 04:59:40 10° SSW
Cosmos 1328 3.7 04:56:53 10° N 05:00:52 77° W 05:04:49 10° S
Cosmos 1825 Rocket 3.4 05:00:03 10° N 05:04:22 83° W 05:08:40 10° S
Meteor 1-11 4.4 05:00:09 10° N 05:05:55 78° E 05:11:34 10° SSE
SAR-Lupe-4 4.3 05:02:40 10° SSE 05:06:09 56° ENE 05:09:40 10° N
Cosmos 1703 3.6 05:06:49 10° NNW 05:10:35 45° W 05:14:20 10° SSW
Cosmos 1953 Rocket 3.8 05:06:13 10° N 05:10:42 74° E 05:15:07 10° SSE
OAO 2 Rocket 4.1 05:07:48 14° SW 05:11:59 43° SSE 05:16:52 10° E
Delta 2 Rocket 3.2 05:12:20 15° W 05:15:24 80° NNW 05:19:37 10° ENE
Cosmos 724 4.4 05:09:34 10° NW 05:15:29 57° WSW 05:21:28 10° S
Cosmos 1300 2.6 05:12:39 10° S 05:16:27 78° W 05:20:16 10° N
Cosmos 1844 4.2 05:11:26 10° S 05:17:07 64° ESE 05:22:50 10° NNE
SAR-Lupe-1 4.1 05:17:57 10° SSE 05:21:31 88° ENE 05:25:07 10° NNW
FENGYUN 3A 4.1 05:17:42 10° NNE 05:23:03 66° ESE 05:28:22 10° S
IDEFIX/ARIANE 42P 4.5 05:21:24 10° NW 05:23:44 13° WNW 05:26:05 10° W
Cosmos 1606 Rocket 4.4 05:21:09 10° SW 05:25:05 31° W 05:29:05 10° NNW
ERBS 4.2 05:26:09 11° WSW 05:26:09 11° WSW 05:26:51 10° SW
ADEOS 3.6 05:22:07 10° N 05:27:16 62° WNW 05:32:23 10° SSW
Meteor 1-31 Rocket 2.9 05:25:06 10° NNE 05:28:58 81° ESE 05:32:46 10° S
Cosmos 1689 Rocket 3.6 05:26:49 10° SSE 05:29:34 40° ENE 05:32:19 10° N
OAO 3 Rocket 3.4 05:25:01 10° W 05:29:58 72° N 05:34:52 10° E
Atlas Centaur 2 3.4 05:22:48 10° WSW 05:30:15 55° SSE 05:38:32 10° E
ATLAS 3B CENTAUR R/B 2.8 05:23:00 10° W 05:30:56 38° SSW 05:34:49 10° SE
Cosmos 1484 Rocket 2.6 05:29:47 10° N 05:33:28 80° WNW 05:37:10 10° SSW
Cosmos 2263 Rocket 4.1 05:36:06 10° WNW 05:38:13 12° NW 05:40:21 10° NNW
